STARLINK-32548 (62120 NORAD) Tracking and Keplerian Element Data

This shows tracking and keplerian element data for the satellite.

Feedback or suggestion? Click here.




ElementValue
Catalog62120
NameSTARLINK-32548
Epoch Orbit1169
Epoch Day34.57154171
Epoch Year2025
RAAN231.526
Inclination43.0035
Eccentricity0.0001993
Argument of Perigee276.2234
Mean Anonmoly83.8396
Mean Motion15.4071168
Decay Rate-1.427E-05
L11 62120U 24222G 25034.57154171 -.00001427 00000+0 -26881-4 0 9992
L22 62120 43.0035 231.5260 0001993 276.2234 83.8396 15.40711680 11692



Live tracking and technical data element details for STARLINK-32548 (NORAD 62120). STARLINK-32548 can be tracked NOW for your location showing map with azimuth and elevation plus other details from your city location.







IsCatalogInMostPopularTable: catalog: 62120, numindb: 13
Update: records affected: 1



GetName: 62120 STARLINK-32548

Hit Count: updated at: Mon, 19 May 2025 02:14:11 GMT